Starlink 30827

operational
NORAD ID: 58195 Int'l Des: 2023-167 Owner: SPXS Country: US Constellation: starlink
LEOCIRCULAR

About Starlink 30827

Description loading...

Live Position

Loading 3D Globe...

Upcoming Passes

Altitude History

Altitude vs Time

uPlot chart will show altitude changes over time

Two-Line Element Set

1 58195U 23167W 26034.17288538 .00000031 00000-0 17398-4 0 9990
2 58195 43.0015 333.4377 0001393 258.5182 101.5504 15.02538739125760
Epoch: Feb 3, 2026 • Age: 20 hours

Current Status

Altitude 560.0 km
Velocity 7.59 km/s
Sub-Earth Point 28.53°N, 19.09°W
Launch Date Oct 30, 2023
Age 2.2 years
Type internet

Technical Details

Classification Payload
Mass 730.00 kg
Dry Mass 700.00 kg
Total Mass 730.00 kg
Length 0.30 m
Diameter 4.10 m
Span 29.00 m
Shape Box + pan
Manufacturer SPXS
Bus Type Starlink V2M
Phase Status In Orbit
Owner/State SPXS/US

Large Constellations

Loading constellations...